sat.trackr.live / text

‹ back to catalog

STARLINK-36899

NORAD 68058 · 2026-041U

PAYLOAD ACTIVE UNKNOWN

§ Identity

Operator
Country
US
Launch date
2026-03-02
Launch site
AFETR
Launch vehicle
Mass (kg)
RCS (m²)

Purposes: comms

External: N2YO · Heavens-Above · Gunter

§ Orbital elements

Epoch: 2026-05-25T04:26:00.589920Z

Period
94.10 min
Inclination
53.1575°
Eccentricity
0.0001011
Mean motion
15.30207746 rev/d
Perigee alt
474.5 km
Apogee alt
475.9 km
Semi-major
6,853.3 km
B*
5.0339e-4
RAAN
54.3225°
Arg perigee
112.8359°
Mean anomaly
247.2749°
Rev number
1,310

§ Raw data

STARLINK-368991 68058U 26041U   26145.18472905  .00014583  00000+0  50339-3 0  99972 68058  53.1575  54.3225 0001011 112.8359 247.2749 15.30207746 13103

JSON: /api/v1/satellites/68058 · /tle

For live sub-satellite position, see the globe view (requires WebGL).

§ Visibility from observer

Set your observer location to see the next 7 days of passes ≥ 10°. The values pass through the URL so the page stays shareable.

No JS? Fill the form by hand. The geolocation button needs JavaScript.